Theta_e
308 307 307 307 307 307 306 306 305 303 302 302 302 302 302 303 303 303 303 303 304 304 304 304 303 303 303 303 303 302 302 302 302 301 301 301 300 299 298 297 296 295 294 294 294 294 294 294 294 294 295 295 295 295 295 295 295 295 295 294 294 294 294 294 294 294 293 292 291 290 290 290 290 289 289 289 289 289 289 289 289 289 289 290 290
306 306 306 306 306 306 305 305 305 304 302 302 302 302 302 302 302 302 302 303 303 303 303 303 303 302 302 302 302 302 302 301 301 301 301 301 300 300 299 298 297 296 295 294 294 293 293 293 294 294 294 294 294 294 295 295 295 294 294 294 294 294 294 294 293 293 293 292 291 290 290 290 290 289 289 289 290 289 289 289 289 289 290 290 290
304 304 304 304 304 305 305 305 304 304 303 302 301 301 301 301 301 301 301 302 302 302 302 302 302 302 302 302 301 301 301 301 301 301 301 300 300 300 300 300 298 297 296 295 294 293 293 293 293 293 294 294 294 294 294 294 294 294 294 294 294 294 294 293 292 293 293 291 290 290 289 289 289 289 289 290 290 290 290 290 289 290 290 290 290
301 303 304 304 303 304 304 304 304 303 303 302 301 301 301 300 300 300 300 300 300 301 301 301 301 302 302 301 301 301 301 301 301 301 301 300 300 300 300 300 299 298 298 297 295 294 293 293 293 293 293 293 293 294 294 294 294 294 294 294 294 294 293 293 292 292 292 291 290 289 289 289 289 289 289 289 290 290 290 289 289 290 290 290 290
297 299 301 302 303 303 302 302 303 303 303 302 302 301 300 300 300 300 299 299 300 300 300 300 300 301 301 301 301 301 301 301 301 301 301 301 300 299 299 299 299 299 299 298 297 295 294 293 293 293 293 293 293 293 294 294 294 294 294 294 293 293 293 292 292 292 291 290 290 289 289 289 289 289 289 289 289 289 289 289 289 289 289 290 290
295 295 297 299 301 302 302 302 301 301 302 302 302 302 301 300 299 299 299 299 299 299 299 299 299 300 300 301 301 301 300 300 300 300 300 300 300 299 298 298 299 299 299 298 297 296 295 294 293 293 293 293 293 293 294 294 294 294 294 294 293 293 293 292 292 291 290 290 289 289 289 289 288 288 288 288 288 288 288 288 288 288 288 289 289
293 293 294 295 297 299 300 301 301 301 301 301 301 301 301 301 300 299 298 298 298 298 298 299 299 299 300 300 300 300 299 299 299 299 299 299 300 300 299 298 298 298 298 298 297 297 296 295 294 293 293 293 293 293 293 293 294 294 294 293 293 293 292 292 291 291 290 289 289 288 288 288 288 288 288 288 288 287 287 287 287 287 287 287 286
292 292 292 293 294 295 296 298 299 300 300 300 300 300 300 301 301 300 298 297 297 297 297 298 298 298 298 299 299 299 298 299 298 298 298 298 298 299 299 299 298 297 297 297 297 297 296 296 295 294 293 293 293 293 293 293 293 293 293 293 292 292 292 291 291 290 290 289 289 288 288 287 287 287 287 287 287 287 286 286 286 286 286 285 285
291 291 291 292 292 293 294 295 297 298 299 300 300 300 300 300 300 300 299 297 296 296 297 296 297 297 297 297 297 297 297 298 298 298 298 298 298 298 298 298 298 297 297 296 296 296 296 296 295 295 294 293 292 292 292 293 293 293 293 293 292 292 291 291 290 290 290 289 288 288 287 287 287 287 287 287 287 287 286 285 285 285 285 285 285
289 290 290 290 291 291 292 293 295 296 297 298 299 300 300 300 299 299 299 299 297 296 296 296 296 296 296 296 296 296 296 297 297 297 297 297 297 297 297 298 298 298 297 297 296 295 295 295 295 294 293 293 292 292 292 292 292 292 292 292 292 292 291 291 291 290 290 289 288 287 287 287 287 287 287 287 287 286 285 285 284 284 284 284 285
289 289 289 289 289 290 290 291 292 293 294 296 297 298 299 300 300 299 299 299 298 297 296 296 296 295 295 295 296 296 296 296 296 296 296 296 296 296 296 297 297 297 297 297 297 296 295 294 294 293 292 292 292 291 291 291 291 291 291 291 291 291 290 291 291 290 289 288 287 287 287 286 286 286 287 286 286 285 285 284 284 284 284 284 285
288 288 288 288 288 288 289 290 290 291 291 293 294 295 297 298 299 299 299 298 298 298 297 296 295 295 295 295 295 295 296 296 296 296 296 296 295 295 295 296 296 296 296 297 297 297 296 295 293 292 292 291 291 291 291 290 290 290 290 290 290 289 289 289 289 289 288 287 287 286 286 286 286 286 286 286 285 285 284 284 284 284 284 284 284
287 288 288 288 288 287 288 288 288 289 290 290 291 293 294 296 297 298 299 298 297 297 297 296 295 295 294 294 295 295 295 295 295 295 295 295 295 295 294 294 295 295 295 295 296 296 295 295 294 292 291 291 290 290 290 290 289 289 289 289 289 288 288 288 288 287 287 286 286 286 286 286 286 286 286 285 285 285 284 284 284 284 284 283 284
287 287 287 287 287 287 287 287 287 287 288 289 290 291 292 294 296 297 297 298 298 297 296 296 295 294 294 294 294 294 294 294 294 294 294 294 294 294 294 293 294 294 294 294 294 294 295 295 294 293 292 291 290 289 289 289 289 289 289 289 288 288 288 287 287 287 287 286 286 286 286 285 286 286 286 285 285 284 284 283 284 284 283 283 283
286 286 286 286 286 286 286 286 286 286 286 287 288 289 290 292 294 296 296 297 297 297 297 296 295 294 294 293 293 293 293 293 293 293 293 293 293 293 293 293 293 293 293 293 293 293 293 294 293 293 292 291 291 289 289 288 288 288 288 289 289 288 288 287 287 287 287 286 286 286 286 285 286 286 285 285 284 284 283 283 284 283 282 282 283
286 286 286 286 286 286 286 286 286 286 286 286 286 287 288 289 291 293 295 296 296 296 297 296 295 294 293 293 292 292 293 292 292 293 293 293 292 292 292 292 292 292 292 292 292 292 292 292 292 292 292 292 291 289 289 288 288 288 288 289 289 288 287 287 287 286 286 286 286 286 285 285 285 285 285 284 283 283 284 283 282 281 281 282 282
286 286 286 286 286 286 286 286 286 286 286 286 286 286 286 287 288 290 292 294 295 296 296 296 296 294 293 292 292 292 292 292 292 292 292 292 291 291 291 291 291 291 291 291 291 291 291 291 291 291 292 291 290 288 288 288 288 288 288 288 288 287 287 286 286 286 286 285 285 285 285 285 285 285 284 283 283 283 283 282 281 280 281 281 281
285 285 285 286 286 286 286 286 286 286 286 286 286 286 286 286 286 287 289 290 292 294 295 296 296 295 294 292 292 291 291 291 291 291 291 291 290 290 290 290 290 291 291 291 290 290 290 290 290 290 291 290 289 288 287 287 287 288 288 288 287 287 286 286 286 286 285 285 284 284 284 284 284 284 284 283 282 282 281 280 280 281 281 281 280
285 285 285 285 285 285 285 285 286 286 286 286 286 285 285 285 285 286 287 288 289 290 292 294 295 295 295 293 292 291 291 290 290 290 290 290 290 289 289 289 289 289 289 289 289 289 289 289 289 289 289 289 289 287 286 286 287 288 288 287 287 287 287 287 286 286 285 284 284 284 283 284 284 284 283 282 281 281 280 280 280 281 281 280 280
284 284 284 284 285 285 285 285 285 285 285 285 285 285 285 285 285 285 285 286 287 288 289 291 293 294 295 294 293 292 290 290 289 289 289 289 289 288 288 288 288 289 288 288 288 288 288 288 288 287 288 288 287 286 285 286 286 287 287 287 287 288 287 286 286 285 284 284 283 283 283 283 283 283 282 281 280 280 280 280 280 280 280 279 279
283 283 284 284 284 284 284 285 285 285 285 285 285 285 285 285 285 285 285 285 285 286 287 288 290 292 293 294 294 293 292 290 289 289 288 288 288 287 287 288 288 288 288 288 288 288 288 288 287 287 286 287 286 285 284 285 285 286 286 287 288 288 286 285 285 284 283 282 282 282 282 283 282 281 281 280 280 280 280 280 280 280 279 279 279
283 283 283 284 284 284 284 284 284 284 284 285 285 285 285 285 285 285 285 284 285 285 286 287 288 289 291 292 293 293 293 291 290 289 288 287 287 287 287 287 287 287 287 287 287 288 288 288 287 286 286 286 286 285 284 284 284 285 286 286 287 286 285 284 284 283 282 282 282 282 282 282 281 281 280 280 280 280 280 280 279 279 279 279 278
282 282 283 283 283 283 284 284 284 284 284 284 284 285 285 285 285 285 284 284 284 285 285 285 286 288 289 291 292 292 292 291 291 290 289 288 287 287 286 286 287 287 287 287 287 287 288 288 287 286 286 286 286 285 284 283 283 285 286 286 286 284 283 283 282 282 282 282 282 282 282 281 281 280 280 280 280 280 280 279 279 279 279 278 278
280 281 281 282 282 283 283 283 283 284 284 284 284 284 284 284 284 284 284 284 284 284 284 285 285 286 287 289 290 292 292 292 291 291 290 289 287 286 286 286 286 286 286 286 286 287 287 287 286 286 285 286 286 285 284 283 283 285 286 286 284 283 282 282 281 281 281 282 282 282 281 281 280 280 280 280 280 280 279 279 279 278 278 278 278
278 278 279 280 281 281 281 282 283 283 283 283 283 283 284 284 284 284 284 284 284 284 284 284 284 285 286 287 288 290 291 292 292 291 291 290 288 287 286 286 286 286 286 286 286 286 286 285 285 285 285 285 284 284 283 283 283 285 285 285 283 281 281 281 281 281 281 282 282 281 281 280 280 279 280 280 279 279 279 279 278 278 278 278 278
276 276 277 277 278 278 279 280 282 282 282 282 282 282 283 283 283 283 283 284 284 284 284 284 284 284 285 285 287 288 289 290 291 291 290 290 289 288 286 285 286 286 286 286 285 285 285 285 284 284 284 283 283 283 283 283 283 283 283 283 281 280 281 281 281 281 282 282 281 281 280 279 279 279 280 280 279 279 279 279 278 278 278 278 279
275 275 275 275 276 276 276 277 279 280 281 281 281 282 282 281 281 282 283 283 284 284 284 284 284 284 284 285 285 286 287 288 290 290 290 290 290 289 287 285 285 285 285 285 285 285 284 284 284 284 283 283 282 283 283 283 282 282 282 281 281 280 281 281 282 282 282 281 280 280 279 279 279 279 279 279 279 279 278 278 278 278 278 278 278
272 273 273 273 274 274 274 274 275 276 277 278 278 279 281 281 280 281 282 282 283 283 284 283 283 284 284 284 285 285 286 287 288 290 291 290 290 289 288 286 285 285 284 284 284 284 284 283 283 283 283 282 282 282 282 281 281 281 281 280 281 281 281 281 281 281 280 279 279 279 279 279 279 279 279 279 278 278 278 278 278 278 278 278 278
270 271 271 271 272 272 272 272 272 272 273 274 275 276 277 278 278 279 281 282 282 282 283 283 283 284 283 283 284 284 285 286 287 288 290 290 289 288 288 286 285 284 284 284 284 284 283 282 282 281 281 281 281 281 281 281 281 281 281 281 281 281 281 281 281 280 279 278 278 278 278 278 278 278 278 278 277 277 277 277 277 277 278 278 278
268 269 269 270 270 270 270 270 270 270 270 271 272 273 274 275 275 276 279 281 281 281 282 282 283 283 283 283 284 284 284 285 286 287 288 289 289 288 287 286 285 284 284 284 284 284 283 282 281 281 280 280 280 280 280 280 280 280 280 280 281 282 282 281 280 279 278 278 278 278 278 278 278 278 277 277 277 277 277 277 277 277 277 277 277
265 266 267 267 267 268 267 268 268 269 269 269 270 270 272 273 274 275 276 278 280 280 280 281 283 283 282 283 284 284 284 285 285 286 287 289 289 288 287 285 284 284 284 283 283 283 283 282 281 281 280 280 280 280 280 280 280 280 280 280 281 281 281 281 279 278 278 278 278 278 278 277 277 277 277 277 277 277 277 277 277 277 277 277 277
263 263 264 264 264 265 265 265 266 266 267 267 267 268 269 270 273 275 277 277 278 279 279 279 281 282 282 282 283 284 284 284 285 285 286 288 288 288 287 285 284 283 283 283 283 282 282 282 281 281 280 280 280 280 280 280 280 280 280 281 281 281 281 280 279 278 278 278 278 278 277 277 276 276 276 276 276 276 276 276 277 277 277 277 277
262 262 262 262 262 263 263 263 263 264 264 265 265 266 267 267 269 273 275 276 276 277 278 278 279 281 282 282 282 283 284 284 284 285 286 287 288 287 286 285 284 283 283 283 282 282 282 282 281 281 280 279 279 280 280 280 281 281 281 281 281 281 281 280 279 278 278 278 277 277 276 276 276 276 276 276 276 276 276 276 276 276 276 276 276
261 262 262 262 262 262 262 263 263 263 264 264 265 265 266 267 268 270 272 274 275 276 277 278 279 280 281 282 282 283 283 284 284 284 284 286 287 286 285 284 284 283 283 282 282 282 282 281 281 281 280 280 279 279 280 281 281 281 282 281 281 281 280 279 278 278 277 277 277 276 276 275 275 275 276 276 276 276 276 276 276 276 276 276 276
261 261 262 262 262 262 262 263 263 263 264 264 265 265 266 267 269 270 271 272 274 275 276 277 278 278 279 281 282 283 283 283 283 283 283 284 285 285 283 283 283 283 282 282 282 282 281 281 281 280 280 280 280 280 280 281 281 281 281 281 281 280 279 278 278 278 277 277 276 275 275 275 275 275 275 276 276 276 276 276 276 276 276 276 276
261 261 262 262 262 262 263 263 263 264 264 264 265 265 266 267 268 269 270 271 273 274 275 276 277 277 278 279 281 282 283 283 283 283 282 282 283 283 282 282 283 283 282 282 282 282 281 281 281 281 281 281 281 281 280 281 281 281 281 280 280 279 279 278 278 277 277 276 275 275 275 275 275 275 275 275 276 276 276 275 275 275 275 275 275
261 261 262 262 262 262 262 263 263 263 264 264 265 265 266 266 267 268 269 270 271 272 274 276 277 277 277 278 279 280 282 283 283 283 282 282 282 282 282 282 283 283 282 282 281 281 281 281 281 281 281 282 282 281 281 281 281 281 280 279 279 279 278 278 277 276 276 275 275 275 275 275 275 275 275 275 275 275 275 275 275 275 275 275 274
261 262 262 262 262 263 263 263 264 264 265 265 265 266 266 267 267 268 269 270 271 272 272 274 277 278 278 278 278 279 280 282 283 283 282 281 282 282 282 282 282 282 282 282 281 281 281 280 280 281 281 282 282 281 281 281 280 280 279 279 278 277 277 277 276 276 275 275 274 275 274 274 275 275 275 275 275 275 275 275 275 275 275 274 273
262 262 262 262 263 263 263 264 264 264 265 265 265 266 266 267 268 268 269 270 271 273 273 274 276 277 277 278 278 278 279 281 282 282 282 281 281 282 282 281 282 282 282 282 281 281 281 280 280 280 281 281 282 281 281 280 279 279 278 278 277 277 276 276 275 275 275 274 274 274 274 274 275 275 275 275 275 275 275 275 275 274 273 272 272
262 262 263 263 263 263 263 263 263 264 264 264 265 265 266 267 268 268 269 270 271 272 274 275 276 277 277 278 278 278 279 280 281 282 281 281 281 281 281 281 281 282 282 282 282 281 280 280 280 280 280 281 281 281 280 279 279 278 278 277 277 276 276 275 275 274 274 274 274 274 274 274 275 275 275 275 274 274 274 274 274 273 272 272 271
263 263 263 263 263 263 263 263 264 264 265 265 266 266 267 268 268 269 269 270 271 272 273 274 275 276 277 277 277 278 279 280 281 281 281 281 281 281 281 281 281 281 282 282 282 281 280 280 280 280 280 280 281 280 279 279 278 278 277 276 276 276 275 275 274 274 274 274 274 274 274 275 275 275 275 274 274 274 274 274 273 272 272 272 271
263 263 263 263 263 263 263 263 264 265 265 266 267 267 268 268 269 270 270 271 272 272 273 273 274 275 276 277 277 278 279 280 280 281 281 281 281 281 281 280 281 281 281 281 282 281 280 280 280 280 280 280 280 279 278 278 277 277 277 276 276 275 275 274 274 274 274 274 274 274 274 274 275 274 274 274 274 274 273 273 272 272 272 271 271
263 264 264 264 264 264 264 264 264 264 264 265 266 266 267 268 269 270 271 271 272 273 273 274 275 276 276 277 277 278 279 279 280 280 281 281 280 280 280 280 280 281 281 281 281 281 280 280 280 280 280 280 280 279 278 278 277 277 276 276 275 275 274 274 274 274 274 274 274 274 274 274 274 274 274 274 274 273 273 272 272 272 271 270 270
264 264 265 265 265 265 265 264 264 264 264 264 265 265 266 267 268 269 270 271 272 273 273 274 275 276 277 277 278 278 279 279 280 280 280 280 280 280 280 280 280 280 281 280 280 280 280 280 280 280 279 279 278 278 277 277 276 276 276 275 275 274 274 274 274 274 274 274 274 274 274 274 274 273 273 273 273 273 272 272 272 271 270 270 270
265 265 265 265 266 266 265 265 265 264 264 264 264 265 266 267 268 269 270 270 271 273 274 275 275 275 276 277 277 278 278 279 280 280 280 280 280 280 279 280 280 280 280 280 280 280 280 280 279 279 278 277 277 276 276 276 275 275 275 274 274 274 274 274 274 274 274 274 274 274 274 273 273 273 273 273 272 272 272 271 271 270 269 269 270
266 267 267 266 266 267 266 266 265 265 265 264 265 265 266 267 268 269 270 271 272 273 274 275 275 275 276 276 277 277 278 279 279 280 279 279 279 279 279 279 280 280 280 280 280 279 279 279 279 278 278 277 276 275 275 275 274 274 273 273 273 273 273 273 273 273 273 273 273 273 273 273 273 273 273 272 272 271 271 270 270 269 269 269 270
267 268 268 268 268 268 267 267 266 266 266 266 265 266 266 267 269 270 271 272 273 274 275 275 275 276 276 276 276 277 278 279 279 279 279 279 279 279 279 279 279 279 279 279 279 279 279 278 278 277 277 276 275 275 274 274 273 273 273 273 273 273 273 273 273 273 273 273 273 273 273 273 273 273 272 272 271 270 270 270 269 269 269 269 269
267 268 268 269 269 268 268 268 267 267 267 267 267 268 268 269 270 271 272 273 274 274 275 275 275 275 276 276 276 277 277 278 279 279 279 279 279 279 279 279 279 279 279 278 278 278 277 277 276 276 275 275 275 274 274 273 273 273 273 273 273 273 273 273 273 273 273 273 273 273 273 273 273 272 272 271 270 270 269 269 269 269 269 269 269
267 268 268 269 269 269 268 268 268 268 269 269 269 270 271 271 272 272 273 273 274 274 274 275 275 275 275 276 276 277 277 278 278 278 278 278 278 278 278 278 278 278 278 277 277 276 276 275 275 274 274 274 274 273 273 273 273 273 273 273 273 273 273 272 272 272 272 272 272 272 272 272 272 271 271 270 270 269 269 269 268 269 269 269 269
268 268 268 268 268 269 269 269 269 269 269 270 270 271 271 272 272 273 273 273 274 274 274 275 275 275 275 276 276 276 277 277 278 278 278 278 278 277 277 277 277 277 277 277 276 275 275 274 274 273 273 273 273 272 272 272 272 272 272 272 273 273 273 272 272 272 272 272 272 272 272 271 271 271 270 270 269 268 268 268 268 269 269 269 269
268 268 268 268 268 269 269 269 270 270 270 270 271 271 272 272 272 273 273 273 273 274 274 274 274 275 275 275 276 276 276 277 277 277 277 277 277 276 276 276 276 276 276 276 275 274 274 273 273 273 272 272 272 272 272 272 272 272 272 272 272 272 272 272 272 272 272 272 271 271 271 271 271 270 269 268 268 268 268 268 268 269 269 269 268
Wind_Speed
25 26 27 26 25 24 23 21 20 22 26 30 34 36 39 41 43 43 44 45 46 46 47 47 47 47 47 47 48 49 50 51 52 53 53 54 54 55 56 57 58 58 58 58 57 56 54 53 51 49 47 46 45 43 41 38 36 33 31 29 28 26 25 24 23 21 22 22 21 20 19 17 16 15 14 13 14 15 16 18 18 18 19 18 17
25 27 27 26 25 24 23 23 21 21 23 26 30 33 35 38 40 42 44 45 46 47 47 47 47 47 47 48 48 49 49 49 50 51 53 53 53 53 55 56 57 58 59 59 59 58 56 55 53 51 50 48 47 45 43 40 38 35 33 31 30 28 26 25 23 21 22 22 22 22 21 19 17 16 16 15 15 16 17 17 18 19 20 19 18
26 27 27 27 26 24 23 23 22 21 22 24 26 29 32 35 37 40 43 45 46 47 47 47 47 47 48 49 49 49 49 49 49 51 52 53 53 53 53 54 56 58 59 60 59 59 58 57 55 53 52 51 49 47 44 42 39 37 35 33 31 29 27 26 24 23 22 22 23 23 22 20 18 17 17 17 17 18 18 19 19 20 21 20 19
27 27 28 29 28 26 25 23 21 21 21 21 23 24 27 30 34 37 40 43 45 47 47 47 47 47 48 49 50 50 50 49 49 50 51 53 53 53 53 54 55 56 58 59 59 59 59 59 57 56 55 53 51 49 47 44 42 39 37 35 32 30 28 27 25 24 23 23 24 24 21 19 18 18 18 18 18 19 20 20 21 21 22 21 20
31 30 30 30 30 29 28 26 23 22 21 21 21 21 23 26 29 33 36 39 42 44 46 47 48 48 49 49 50 50 51 51 50 50 50 51 53 54 54 54 54 55 56 57 58 59 59 59 58 58 57 55 53 52 49 47 45 42 39 37 34 32 30 28 26 26 25 25 25 24 22 20 19 19 19 20 20 20 21 21 22 22 22 21 20
34 33 33 32 32 31 31 30 28 25 24 23 22 21 21 22 25 29 31 34 37 41 44 46 48 48 49 49 49 50 51 51 52 51 50 50 51 53 54 55 54 54 55 56 57 58 59 59 59 59 58 57 55 53 51 49 47 45 42 39 36 33 31 29 28 28 27 26 25 25 23 21 19 19 20 21 21 21 22 23 22 21 21 21 19
34 34 34 33 33 32 32 32 31 30 28 26 25 24 23 23 24 25 28 31 34 37 40 43 45 47 48 48 49 50 50 51 52 52 52 51 51 52 54 55 56 55 55 55 57 57 58 58 59 60 60 58 56 55 53 51 49 46 43 40 37 35 33 32 30 30 29 28 27 25 24 22 20 19 20 22 22 22 22 23 22 20 20 20 19
34 34 34 33 33 33 32 31 31 31 31 29 27 25 25 25 25 24 25 29 32 34 36 39 42 44 46 48 48 49 50 52 53 53 53 52 52 52 53 54 56 56 56 56 57 57 57 58 59 60 60 58 56 55 54 53 50 47 44 41 39 37 35 33 32 31 31 29 28 26 24 23 22 20 20 22 23 22 23 23 22 19 19 20 19
35 34 34 34 34 33 32 31 30 30 30 30 30 28 26 25 26 26 25 27 29 32 34 37 39 42 44 45 47 48 50 51 52 53 53 53 53 53 53 53 55 56 57 57 58 58 59 59 59 60 59 57 56 56 54 53 51 48 46 43 40 38 36 34 33 33 33 31 30 28 26 25 24 22 22 23 23 22 22 22 21 20 20 21 20
35 34 34 34 34 34 32 32 31 30 30 30 30 30 29 26 25 26 27 27 27 29 31 35 38 40 42 43 45 47 49 51 52 52 53 53 53 53 53 52 53 55 56 57 59 60 61 60 60 60 59 57 57 56 55 53 51 48 46 43 41 40 38 37 36 35 34 33 31 29 28 26 24 23 23 22 23 22 21 20 20 20 21 24 22
34 34 34 33 34 34 34 33 32 31 31 30 30 30 30 29 27 25 26 28 28 27 29 32 35 37 40 42 44 45 48 49 50 51 52 52 53 53 53 53 54 55 56 57 58 60 61 61 61 61 60 59 58 57 56 54 52 49 46 43 41 39 38 37 36 36 35 33 31 30 28 26 24 24 23 22 22 22 21 20 20 20 22 24 23
32 33 33 33 33 34 34 34 33 33 32 31 30 29 29 29 29 28 25 25 27 28 28 29 31 34 37 40 43 45 46 47 49 50 51 51 52 53 53 53 54 56 57 58 58 59 61 61 62 62 62 61 59 58 57 55 52 49 46 44 42 40 38 37 36 35 34 33 31 30 28 27 25 24 23 22 21 21 20 20 20 21 23 23 23
31 31 32 32 33 33 34 34 34 33 33 33 32 30 29 28 28 29 28 25 24 26 27 28 29 31 34 38 41 43 44 45 47 49 50 51 51 51 52 52 53 56 57 58 58 59 60 61 61 62 62 62 61 60 59 56 53 50 47 45 44 42 40 38 37 36 34 33 32 30 29 27 26 25 23 21 21 21 20 20 21 22 23 22 22
30 31 31 31 31 32 32 33 33 34 33 33 33 31 30 29 27 27 28 27 26 24 25 27 27 29 31 35 38 41 42 44 46 48 49 50 50 50 50 50 52 55 58 58 59 59 60 60 61 61 61 62 62 61 60 57 55 52 49 47 46 43 41 39 38 37 36 35 34 31 29 28 26 25 23 21 21 21 21 21 22 22 22 22 21
31 31 31 31 31 31 31 32 32 33 33 33 33 32 31 30 29 28 27 27 27 26 25 25 26 27 29 32 36 39 41 43 45 46 47 48 48 49 49 49 51 55 57 59 59 59 59 60 59 59 59 60 61 61 60 58 55 53 50 49 47 44 42 41 40 39 38 36 35 32 29 28 27 25 22 21 21 21 22 22 22 21 22 22 22
32 32 33 33 33 32 32 32 32 32 32 33 33 33 33 32 31 30 29 28 27 26 26 24 24 25 26 28 32 37 39 41 43 45 46 46 47 47 48 49 51 54 57 59 59 59 59 58 58 57 57 57 58 59 58 57 55 53 51 49 47 45 43 41 40 39 38 36 34 31 28 27 26 24 22 21 21 22 22 22 20 20 22 23 23
31 32 33 34 34 34 34 34 34 33 33 33 33 33 34 34 33 32 32 31 29 28 27 25 23 23 24 26 29 33 36 38 41 43 44 45 45 46 48 49 50 53 56 58 59 59 58 58 57 56 55 55 55 56 56 56 55 53 51 50 47 45 44 42 41 40 38 36 33 30 27 26 26 24 22 21 21 22 21 19 18 20 22 23 23
31 32 33 33 34 34 35 35 36 36 35 34 34 34 34 34 34 33 34 34 33 31 29 28 25 24 23 24 26 29 32 33 36 40 42 43 44 45 46 48 50 52 55 57 58 58 58 57 57 55 54 53 52 53 55 56 55 54 52 50 48 46 44 43 42 39 37 35 33 30 28 27 26 24 23 21 20 21 20 19 19 21 22 22 23
34 35 35 34 34 34 34 35 36 37 37 36 36 36 35 35 34 34 34 35 35 34 33 31 29 26 24 24 24 27 29 30 33 36 39 41 42 43 44 46 49 52 53 55 56 57 57 57 56 55 53 50 50 51 53 54 55 55 53 50 48 46 44 42 40 39 37 36 34 31 30 29 27 24 22 20 20 20 20 19 20 20 20 21 22
38 38 39 38 37 36 36 36 37 37 38 38 38 38 38 37 37 36 35 35 36 36 36 35 33 30 27 25 24 25 27 28 30 32 35 38 40 42 43 46 49 51 52 53 55 55 56 56 55 53 51 49 49 50 52 54 55 54 52 50 47 45 42 41 40 39 37 36 34 32 31 29 25 22 21 20 20 20 20 20 19 19 20 21 21
41 42 42 43 42 41 40 39 39 39 39 40 40 40 40 40 40 40 39 38 37 37 37 37 36 35 32 29 27 25 25 26 27 29 31 35 38 40 43 46 48 49 50 52 53 54 55 55 54 52 50 49 49 49 50 52 53 52 50 47 44 41 41 41 41 39 37 35 34 33 30 27 23 21 21 20 20 20 19 19 19 19 20 21 22
44 45 46 47 46 46 45 43 43 43 42 43 44 44 43 43 43 43 43 42 40 38 37 37 37 38 36 35 32 29 26 25 26 27 28 31 34 38 42 44 45 46 49 51 52 53 53 53 52 49 48 48 47 47 48 50 51 50 47 44 41 40 40 41 40 38 36 36 35 33 29 25 23 22 21 21 20 19 18 18 18 18 19 21 22
46 47 49 49 49 49 49 48 47 46 46 46 46 47 47 47 47 46 45 44 42 41 39 37 37 38 38 37 37 34 31 28 27 27 27 29 32 35 39 42 43 44 47 50 50 50 50 50 49 47 46 46 45 45 46 47 49 48 45 42 41 40 41 41 38 36 36 36 35 31 27 25 23 22 21 20 19 18 18 17 17 18 19 21 22
47 49 51 51 52 51 51 51 50 49 49 49 49 49 50 50 50 49 47 46 44 43 41 38 37 37 38 38 38 37 35 31 29 27 26 26 30 33 36 39 42 44 45 47 48 48 47 47 45 44 43 43 43 44 44 46 48 48 44 42 41 41 42 42 39 37 37 36 33 29 26 24 22 20 20 19 18 18 18 17 17 18 19 21 22
49 50 51 53 54 54 54 53 53 52 52 51 51 52 52 51 51 51 49 47 46 45 44 41 38 37 38 38 38 38 37 35 32 30 27 25 27 30 33 37 41 44 44 45 45 46 45 44 42 41 41 42 42 43 44 43 43 44 43 40 40 42 43 41 38 37 37 35 31 28 25 22 21 20 20 19 18 18 18 17 17 18 20 22 22
50 51 52 53 54 54 55 56 57 57 56 55 55 55 54 53 52 51 50 49 48 47 45 43 40 39 38 38 39 39 39 38 36 32 29 26 26 27 30 34 39 42 42 42 43 43 42 41 40 38 39 41 42 44 45 43 39 39 40 40 40 41 41 39 37 38 36 33 29 26 23 22 22 22 21 19 18 18 18 18 18 18 19 22 23
50 52 53 55 56 56 56 58 60 61 61 59 58 57 56 54 51 51 50 50 49 48 47 45 43 41 39 38 39 39 40 40 39 35 31 28 26 26 28 32 37 39 39 40 41 42 40 39 38 37 38 41 42 44 44 43 39 36 36 38 39 39 37 36 35 34 32 29 26 24 23 23 23 21 20 19 18 18 18 18 18 18 19 21 23
51 54 56 58 59 59 59 59 59 59 60 60 58 57 56 53 51 51 51 49 48 49 49 47 45 44 41 39 38 39 41 42 41 38 33 29 27 26 26 30 36 40 40 39 40 39 38 38 37 38 39 41 42 43 43 43 42 38 36 37 38 37 35 34 32 30 29 28 26 25 24 23 22 21 20 19 17 17 18 18 18 18 19 20 23
56 59 61 62 63 63 60 58 57 55 55 55 54 53 53 50 49 50 52 51 50 49 49 49 47 45 43 41 40 41 42 43 41 38 33 29 26 25 24 26 35 42 43 41 39 38 38 38 38 39 40 42 43 45 45 45 45 43 41 40 38 37 36 34 33 31 30 29 27 25 24 22 21 21 19 18 17 17 17 17 17 18 18 20 22
60 62 63 63 63 61 59 57 56 53 52 51 51 52 52 50 49 49 51 52 51 49 50 50 49 46 45 44 43 42 42 42 40 37 34 30 27 25 24 24 31 41 44 42 39 39 40 41 41 42 43 45 47 47 47 47 48 48 46 44 40 38 36 34 33 32 30 28 26 25 24 22 21 20 19 17 17 17 17 17 16 17 18 19 21
56 59 60 59 58 57 56 56 55 54 53 52 51 52 54 55 55 53 52 52 51 50 50 50 49 47 46 45 44 43 42 43 42 39 36 32 28 26 25 22 28 39 44 42 41 41 42 43 43 44 46 49 49 49 48 49 50 50 48 45 42 38 35 35 35 34 31 29 27 25 24 22 21 20 18 17 17 16 16 15 15 15 16 18 20
51 54 55 55 54 53 53 53 53 52 52 51 49 49 50 53 56 57 55 51 48 47 47 47 47 48 46 44 43 43 42 44 43 40 37 34 30 28 26 22 27 37 42 44 45 45 44 45 45 46 48 51 51 51 50 50 50 49 47 45 42 39 37 37 37 34 31 29 27 25 23 21 20 19 18 18 17 16 14 13 13 14 15 17 19
50 52 53 52 51 51 50 49 50 50 49 49 48 47 46 47 51 55 55 52 48 46 45 44 45 45 44 43 41 40 40 42 42 39 37 34 30 28 26 23 28 37 42 44 47 48 47 47 46 47 49 51 52 53 53 51 50 48 45 42 40 38 37 37 36 34 31 29 26 23 22 21 20 19 18 17 16 15 13 12 12 13 15 17 19
49 50 50 50 50 49 47 45 44 44 44 43 42 42 42 43 44 46 48 48 47 46 45 45 44 43 42 40 39 37 36 37 39 39 36 34 31 28 26 24 28 37 42 45 48 49 48 48 48 48 49 51 52 53 53 52 49 46 43 41 38 37 37 37 36 33 30 27 24 22 22 21 20 19 17 16 14 13 11 11 11 13 15 17 19
48 49 49 48 47 48 46 43 42 41 40 38 37 35 35 35 34 34 35 37 39 41 42 45 45 42 40 38 38 36 33 34 36 37 35 32 28 26 24 26 32 39 43 45 48 49 49 50 50 50 50 51 51 52 52 51 48 45 42 40 39 38 38 37 34 32 28 26 23 22 21 20 19 18 16 14 12 11 11 10 11 13 15 16 19
46 47 47 46 46 46 45 44 43 41 39 38 36 35 35 35 34 34 34 34 35 36 37 40 41 39 36 34 35 35 34 32 33 35 34 30 26 25 29 33 38 43 46 47 48 49 50 50 51 51 50 49 50 51 51 49 45 42 39 39 40 40 39 36 33 30 27 25 23 22 21 20 18 16 14 13 11 10 10 10 11 14 15 16 18
44 45 45 44 44 44 44 43 42 40 38 37 36 35 36 36 36 36 37 38 39 38 37 37 36 35 34 33 33 33 33 31 31 33 34 30 25 28 34 38 40 44 47 47 48 49 49 50 50 50 49 47 47 48 48 46 42 40 40 40 40 39 36 33 31 28 26 24 23 22 20 18 16 15 13 12 10 9 9 10 12 14 14 15 18
43 43 42 41 40 40 41 40 38 37 35 34 34 35 35 34 33 33 33 33 34 36 37 36 34 32 33 33 30 28 29 30 29 31 33 30 27 31 37 39 40 42 45 47 48 49 49 50 50 49 48 46 44 45 45 43 41 40 41 41 38 35 33 32 29 27 25 23 22 21 18 17 16 14 12 10 9 9 9 10 12 14 14 15 17
43 42 40 38 37 38 38 37 36 36 35 35 35 35 34 34 33 33 32 31 31 31 31 32 34 34 34 32 28 25 26 30 33 34 35 34 31 33 36 39 40 42 44 47 49 49 49 50 50 48 46 44 42 41 41 41 41 41 41 40 38 36 34 31 28 26 24 23 22 19 17 16 15 13 11 9 8 9 10 11 12 13 14 16 18
42 41 41 39 38 37 36 35 35 35 35 34 34 32 32 32 32 32 30 30 30 31 30 30 30 31 31 29 26 25 27 32 36 38 38 36 34 33 36 40 42 42 44 47 49 49 50 50 49 47 45 42 40 38 38 39 40 40 39 38 36 34 32 29 27 25 24 22 20 19 17 15 14 11 9 8 9 10 11 12 12 13 14 16 19
40 40 40 39 37 35 32 31 31 31 30 30 30 30 30 31 31 31 30 28 27 29 31 31 29 27 26 26 25 25 28 33 36 38 39 39 37 35 37 39 41 43 45 46 48 49 50 49 47 44 42 39 37 35 35 37 39 39 38 36 34 32 29 28 26 25 23 21 19 18 16 14 12 9 8 8 10 10 11 11 12 13 15 17 20
39 39 39 38 37 35 33 32 31 30 29 30 30 29 29 29 30 31 32 32 30 29 29 29 28 26 24 23 23 25 29 32 35 38 40 40 39 37 37 38 40 43 45 46 47 49 49 47 44 41 38 36 34 34 35 37 39 38 36 35 33 30 28 27 25 23 21 20 18 16 14 12 10 9 8 9 10 11 11 11 12 14 16 18 21
38 38 38 38 37 36 35 34 32 31 31 31 32 31 31 31 30 29 29 30 32 31 28 27 27 27 24 21 21 24 28 31 34 37 39 39 39 37 36 37 39 41 43 44 46 46 45 43 41 37 34 32 32 33 35 37 37 36 35 33 31 28 27 25 23 22 20 18 16 14 12 10 9 9 9 10 11 11 11 12 13 15 17 19 21
37 37 37 36 36 35 34 33 31 31 30 30 29 30 31 33 34 33 30 27 28 29 29 27 25 25 24 23 22 24 27 30 33 35 36 38 38 37 36 38 40 40 40 40 40 40 39 38 36 34 31 30 31 32 33 34 34 33 32 30 28 26 25 23 21 19 17 16 15 13 11 10 10 10 10 10 11 12 12 12 14 16 17 20 22
35 34 34 34 34 33 31 30 28 28 28 28 27 26 26 27 30 33 33 30 27 27 28 27 23 22 23 24 24 23 25 28 32 34 35 36 37 37 37 38 38 37 37 35 34 34 32 32 32 31 30 30 31 32 33 33 31 29 28 26 24 23 22 20 18 17 15 14 13 12 11 11 10 10 11 11 11 12 12 13 14 16 18 20 22
31 30 30 29 28 26 25 24 23 23 23 23 23 23 22 21 21 24 27 27 26 26 26 26 23 21 22 23 22 21 23 27 31 33 34 35 36 36 36 35 35 34 33 31 30 30 29 28 29 29 29 31 33 34 33 31 29 27 25 23 22 21 19 18 17 15 14 13 12 11 11 11 11 10 11 12 12 12 13 13 15 17 19 21 23
27 27 26 24 21 19 19 18 18 19 19 19 19 20 20 18 16 16 18 20 22 23 23 22 21 20 20 20 19 20 24 28 30 31 31 32 32 32 32 33 32 31 29 27 27 28 27 26 26 27 30 33 34 33 31 29 27 25 24 22 21 20 18 16 15 14 13 12 11 10 10 11 11 11 12 12 12 12 13 14 16 18 20 22 24
25 25 25 23 21 19 18 18 17 17 16 16 15 15 14 13 13 15 17 19 19 19 18 18 17 16 17 17 18 20 23 26 27 28 28 28 28 28 29 30 29 27 26 25 26 26 25 25 26 28 31 32 31 29 28 26 25 23 22 21 19 18 16 15 14 13 12 11 10 10 10 11 11 11 12 13 12 13 15 16 17 19 21 23 24
25 24 23 23 22 21 19 18 18 17 16 15 15 14 13 13 14 16 17 17 15 14 13 13 13 13 14 15 17 19 22 24 24 25 25 25 25 25 25 25 24 24 25 25 26 25 26 27 29 29 29 28 27 26 25 23 22 21 20 18 17 15 14 13 12 11 10 9 9 10 10 11 11 12 13 13 13 15 17 17 18 20 22 22 24
25 24 23 22 20 19 18 16 15 15 14 14 14 13 13 13 13 13 12 11 10 9 9 10 11 11 13 14 16 17 20 21 22 22 22 21 21 22 23 24 24 25 25 26 26 27 29 30 30 29 27 26 24 23 22 21 20 18 17 15 14 13 12 11 11 9 9 9 9 10 10 11 12 13 13 13 14 16 18 18 18 20 22 22 24
26 25 24 23 21 20 18 16 15 13 12 10 10 9 8 7 7 6 6 6 6 6 6 7 8 10 11 13 14 16 17 19 19 19 19 19 19 21 23 25 26 26 26 27 29 30 30 30 28 27 25 24 22 21 20 18 17 16 14 13 12 11 10 10 9 8 8 8 9 10 11 12 13 13 13 14 16 17 18 18 19 20 21 22 24
Wind_Direction
338 336 335 333 330 328 325 319 310 300 292 285 280 276 273 271 269 267 266 264 262 261 261 260 259 258 258 256 254 252 250 248 246 244 242 240 239 239 238 238 237 237 236 235 235 235 235 235 235 236 236 237 237 236 236 236 236 236 236 238 240 243 245 247 249 250 253 255 256 258 258 257 260 266 270 276 282 285 289 291 293 295 294 294 296
348 342 338 335 331 327 323 319 313 303 295 289 286 282 278 275 272 269 267 265 264 263 262 261 261 260 259 258 256 254 252 251 249 247 245 242 240 238 238 238 237 236 236 235 235 234 234 234 235 235 235 236 236 236 236 236 237 236 237 238 240 243 245 246 247 247 249 253 253 253 253 253 255 259 264 269 273 276 278 282 285 288 289 291 295
356 351 347 343 338 331 326 322 317 309 301 296 292 289 286 282 277 273 270 268 266 265 263 262 262 261 260 259 257 255 254 252 251 250 248 246 242 240 239 239 238 237 236 236 235 234 234 233 234 234 235 235 235 235 235 236 237 237 237 239 239 242 244 244 245 248 250 251 250 250 251 254 257 260 265 269 271 274 276 277 279 281 282 285 289
1 356 353 351 348 343 337 329 320 314 308 304 300 297 294 289 283 279 275 271 268 267 265 264 262 261 260 259 258 257 256 254 252 251 250 249 246 244 242 241 240 238 238 237 236 235 234 234 234 234 234 234 234 235 235 235 236 236 236 238 239 241 243 243 245 248 248 247 248 249 249 252 258 262 267 270 272 273 274 276 277 278 280 282 285
4 1 357 354 352 351 349 343 332 321 312 306 303 301 298 293 288 284 280 276 273 270 267 265 263 261 261 260 260 259 258 256 253 252 251 250 249 246 245 244 243 241 240 240 238 237 236 235 235 235 234 234 234 235 235 235 236 236 236 237 238 239 240 242 244 246 246 245 248 250 249 251 256 262 267 271 271 272 272 273 274 275 278 281 286
1 2 0 357 355 353 352 350 346 336 322 311 304 299 296 294 291 288 284 281 277 274 270 267 265 264 264 263 262 260 259 257 255 253 251 250 249 248 246 245 244 243 242 241 240 239 237 236 236 236 236 235 235 236 236 236 236 236 236 237 237 238 239 240 242 245 245 244 244 248 251 252 253 257 264 268 269 270 272 273 274 278 282 287 295
357 358 358 357 356 355 353 352 350 346 339 327 313 302 295 293 291 290 289 285 280 276 273 271 269 268 267 265 264 262 260 258 257 255 252 250 249 249 248 246 244 243 243 242 240 240 239 237 237 237 237 237 237 237 237 237 236 236 236 237 236 236 237 238 240 243 244 243 242 245 249 251 250 252 258 264 267 270 272 274 277 284 291 298 305
354 354 355 354 354 354 354 353 350 349 347 342 333 319 305 294 289 288 289 287 284 280 276 274 271 269 267 265 264 263 261 259 258 255 253 250 249 248 248 247 246 244 242 241 240 240 239 238 237 238 238 238 238 238 238 238 237 236 236 235 235 235 235 236 238 241 243 243 243 243 244 246 247 247 251 258 264 268 271 275 281 287 293 297 304
353 352 351 351 351 350 350 349 349 348 346 345 344 338 326 309 295 287 284 286 287 285 281 277 274 270 268 266 264 262 260 259 258 256 254 252 250 248 247 247 247 246 244 242 240 239 238 237 237 238 238 237 237 238 238 239 238 237 236 235 234 233 234 235 238 240 242 242 241 240 239 240 244 246 249 255 261 265 269 276 283 290 294 295 301
351 351 350 349 349 347 346 345 345 345 345 345 345 344 340 331 313 295 286 283 285 286 284 281 277 274 271 268 266 264 262 262 260 258 257 255 254 251 249 248 248 247 245 244 242 240 238 237 237 237 237 236 236 237 237 237 237 237 237 236 235 235 234 235 237 240 241 241 241 240 239 240 242 246 250 255 260 264 269 276 283 290 295 297 304
346 347 348 348 346 345 344 344 344 344 344 344 345 345 344 341 333 316 297 286 283 283 283 281 279 278 275 272 270 268 267 265 263 261 259 257 255 253 252 251 249 246 245 245 244 242 240 238 237 236 235 234 234 234 235 235 235 234 234 234 234 235 235 236 238 240 240 240 240 240 241 242 243 246 251 256 259 264 270 277 283 289 293 297 306
340 340 342 343 344 344 343 342 343 343 343 344 343 344 343 342 341 335 320 301 287 280 278 279 280 280 278 275 272 270 269 268 265 263 261 259 257 254 253 252 250 248 246 246 245 244 242 241 238 236 234 233 233 232 232 232 231 231 231 231 231 231 233 235 238 239 240 240 241 241 242 242 243 247 253 256 260 265 271 277 282 288 292 298 308
336 335 336 337 338 340 341 341 341 341 342 343 342 342 342 341 342 341 336 326 307 289 281 279 280 280 279 276 274 273 272 270 267 264 262 260 258 256 253 252 251 250 249 248 246 245 243 242 240 237 235 233 232 231 230 229 228 227 227 228 229 230 230 232 235 237 238 239 240 240 241 243 244 248 252 256 261 266 271 276 282 286 292 301 310
331 331 332 332 333 334 336 337 339 339 338 339 339 340 339 338 339 339 338 338 331 315 299 288 283 282 281 279 277 275 274 271 268 265 262 260 259 257 254 253 252 251 251 249 247 246 245 243 242 240 237 235 233 231 229 227 226 225 225 226 228 229 229 231 232 234 235 236 237 238 240 243 245 249 252 256 261 267 271 276 280 285 292 301 309
326 326 326 327 328 329 331 332 334 336 337 336 336 336 335 335 335 334 333 336 336 332 322 305 292 286 283 281 279 276 274 272 268 266 264 262 260 257 255 253 251 251 250 249 248 247 246 245 244 242 240 238 236 233 230 228 226 225 225 227 228 229 229 230 232 234 235 236 237 238 239 243 246 249 252 256 261 266 270 274 281 289 295 301 307
320 321 320 321 322 323 325 327 328 331 333 334 334 333 332 331 332 330 329 329 330 331 330 321 306 293 286 283 280 277 275 272 269 267 265 262 260 257 254 252 250 250 249 249 248 247 246 246 244 243 243 241 239 235 232 229 228 227 227 228 229 229 229 230 232 234 236 236 237 238 238 241 246 249 252 256 259 263 268 275 284 291 293 297 303
314 314 314 314 315 317 319 321 322 324 326 329 331 331 330 329 329 328 326 325 325 325 325 324 317 304 291 283 280 278 277 274 271 268 265 262 259 255 253 251 249 249 248 248 248 246 246 245 243 243 243 241 239 236 233 229 228 228 229 228 228 228 228 229 231 233 235 237 238 237 236 240 245 248 250 252 256 261 267 274 280 282 287 293 300
308 308 307 307 309 311 313 315 316 318 320 321 324 325 326 327 326 325 323 321 320 320 319 319 318 313 302 291 284 281 278 276 273 270 266 263 259 255 252 250 249 249 247 246 246 245 245 244 243 242 242 241 238 235 232 229 228 229 229 228 227 228 228 229 231 232 234 235 235 234 235 237 241 243 246 248 252 258 262 266 270 276 284 293 300
304 304 303 303 303 305 307 309 310 312 314 315 317 318 320 322 323 322 320 317 316 316 316 315 314 314 311 302 291 284 280 278 274 270 267 264 260 256 252 249 248 248 245 244 244 243 243 243 243 242 242 240 238 235 231 229 228 229 229 228 228 230 231 232 233 233 233 233 232 232 233 235 236 238 241 243 246 252 257 261 268 276 285 291 298
303 302 301 301 301 301 303 304 305 307 308 309 310 311 313 317 318 318 317 315 313 312 312 312 312 311 312 308 300 292 285 280 276 272 268 264 260 256 251 248 248 246 244 243 243 242 241 241 241 240 239 237 235 233 230 229 228 228 228 228 230 233 235 235 233 233 232 232 232 232 232 234 234 234 235 238 241 246 252 260 269 278 284 290 295
302 301 300 299 300 300 301 301 302 303 304 304 305 306 308 310 313 314 314 312 310 309 309 309 309 309 309 307 304 299 292 286 279 274 269 264 261 256 251 249 249 246 245 244 243 243 242 241 240 238 235 234 232 230 228 228 227 227 228 230 233 236 236 235 233 231 230 230 230 231 232 232 230 229 231 233 236 242 250 261 270 277 284 290 294
300 299 299 298 298 299 299 299 299 300 301 302 303 303 304 306 308 310 311 309 308 306 305 305 305 305 306 306 305 302 297 290 283 276 270 264 260 256 252 251 251 248 245 245 244 243 243 242 241 239 236 234 232 228 226 227 227 227 228 230 233 233 233 233 231 230 229 229 229 229 229 228 227 227 229 231 235 243 252 261 270 277 284 290 292
297 296 296 296 296 296 296 296 297 297 297 298 300 300 301 303 304 305 306 307 305 303 302 301 301 301 301 302 303 302 299 294 287 281 274 266 261 257 252 251 251 249 246 246 245 244 245 244 242 240 237 236 232 227 224 225 228 229 228 230 231 230 229 229 227 227 228 228 228 227 224 224 225 226 231 236 240 248 255 262 270 278 284 287 289
294 293 293 293 293 293 293 293 293 294 294 295 296 296 297 299 300 301 302 303 302 301 300 299 297 296 297 296 297 299 299 296 291 285 281 272 264 257 249 247 248 248 247 247 247 246 245 244 242 239 237 235 232 226 221 221 227 230 229 229 228 226 226 225 223 224 227 227 225 223 220 222 225 227 233 239 243 250 257 264 272 277 281 284 286
293 292 291 291 290 291 291 290 290 290 291 292 293 293 294 295 296 298 299 299 298 298 298 297 295 294 293 292 292 294 296 296 292 286 282 276 267 259 248 243 245 247 246 246 246 244 243 242 240 237 235 232 228 222 216 217 225 230 228 226 225 223 223 223 221 223 226 225 222 219 218 221 224 227 234 239 243 252 259 265 272 276 280 283 285
292 291 290 289 289 289 289 289 289 289 289 289 290 290 291 292 293 294 294 294 295 295 295 294 293 291 289 289 290 290 292 293 291 286 280 274 269 261 250 241 240 244 245 245 245 243 241 240 237 233 230 227 222 219 215 213 216 224 225 222 220 221 222 222 222 224 224 222 217 215 216 220 224 229 234 239 245 253 260 266 271 275 278 281 284
290 288 287 287 287 287 287 287 288 288 288 288 288 288 288 289 289 289 289 290 290 291 291 290 288 287 287 287 287 287 288 288 288 285 280 275 271 265 253 238 233 235 239 240 240 239 238 236 234 230 227 223 220 220 218 211 207 212 216 215 216 221 223 223 225 224 221 217 214 214 217 221 225 230 235 240 247 255 261 267 271 274 277 281 285
286 285 285 285 285 285 285 286 286 286 287 287 287 286 286 285 284 284 285 285 285 285 286 286 285 285 286 285 283 282 282 282 283 285 286 283 276 268 256 239 228 227 231 234 234 235 235 232 229 226 221 216 214 213 212 207 202 201 205 209 215 221 223 223 222 218 214 213 213 215 218 222 226 231 236 242 248 255 261 267 272 275 279 283 288
285 284 284 284 284 284 285 285 285 285 285 285 285 283 282 281 279 279 280 281 280 280 281 281 282 283 283 282 279 277 277 278 281 285 288 286 276 268 260 243 228 225 229 231 231 230 227 223 220 216 210 206 205 205 204 202 200 199 203 209 214 218 221 221 217 214 213 213 213 216 219 222 227 231 237 242 248 254 261 266 271 276 281 285 289
287 285 285 284 284 284 285 284 284 284 283 282 282 281 280 278 275 274 275 277 277 277 276 277 278 278 278 277 277 275 274 276 279 280 280 278 273 267 260 246 230 226 227 228 227 225 222 216 213 210 206 202 203 204 204 202 201 201 204 209 214 217 219 219 216 215 215 214 215 217 219 222 227 232 237 243 247 253 260 264 269 276 282 287 292
289 287 286 285 285 285 284 284 283 283 282 281 281 280 280 279 277 275 274 274 274 273 273 273 274 274 273 273 274 274 272 271 272 272 272 272 270 265 257 241 225 223 224 222 220 220 218 213 210 209 206 205 204 205 204 203 202 203 206 208 212 214 214 214 215 215 215 214 215 217 219 222 227 233 238 243 247 251 256 262 270 277 283 290 297
292 290 288 287 287 286 285 284 284 283 282 281 281 280 280 281 279 277 275 274 272 270 269 269 269 270 269 269 269 269 269 268 268 268 268 268 266 262 257 239 219 219 223 221 218 218 216 213 211 210 208 207 205 204 204 203 204 206 208 209 211 210 208 209 212 214 214 214 215 216 218 222 227 233 238 243 247 251 255 262 271 279 286 293 299
294 292 291 291 291 290 288 287 287 286 285 284 283 281 280 279 279 279 278 277 274 270 266 265 265 265 265 263 262 262 264 265 265 265 264 264 261 257 253 238 217 215 218 217 216 218 216 213 212 211 209 207 205 204 205 207 208 211 212 212 213 210 207 208 210 211 213 214 214 216 219 224 229 233 238 243 247 253 261 267 276 284 289 294 298
295 293 292 292 291 289 287 285 285 286 285 285 284 282 280 280 281 282 283 281 277 272 266 262 261 260 260 258 256 254 254 256 260 262 260 258 257 253 247 232 215 213 217 217 215 215 214 212 212 211 210 208 207 207 208 210 211 212 212 212 212 210 208 208 209 210 212 212 213 217 221 226 230 234 238 243 249 257 266 273 281 288 292 296 301
296 294 293 292 290 287 286 284 283 282 282 281 280 278 280 283 283 282 282 284 284 279 272 265 261 259 257 255 252 250 246 245 250 256 256 254 251 243 231 219 210 209 213 215 215 215 215 214 213 212 211 211 211 212 212 213 213 212 211 210 209 207 208 209 209 209 210 210 212 218 222 226 232 235 238 245 250 258 270 279 286 292 295 299 304
299 296 295 293 290 288 287 286 284 281 279 278 277 274 275 277 276 271 270 272 276 279 279 275 269 264 259 254 250 247 244 239 240 246 250 249 241 225 215 212 210 208 208 210 212 214 215 216 215 214 214 216 217 218 217 216 215 213 211 209 207 206 206 207 207 207 208 209 212 218 221 226 233 237 240 247 252 260 274 285 289 294 299 304 311
301 298 296 294 292 289 288 286 284 281 278 275 274 273 274 275 274 272 270 267 265 266 269 273 274 268 261 256 251 245 241 238 237 239 243 242 231 216 213 214 212 209 208 208 209 211 213 215 217 217 218 220 221 221 220 218 215 213 210 208 208 207 206 206 205 205 207 208 213 217 220 224 232 237 242 249 257 267 282 291 293 297 305 312 317
302 300 297 294 291 289 288 286 285 282 277 274 273 273 273 272 272 275 276 275 272 267 263 262 264 262 260 259 256 247 240 237 233 230 230 229 220 214 215 216 213 211 211 210 210 211 213 215 217 219 220 221 223 224 222 218 213 211 208 206 204 203 203 203 202 202 205 208 212 215 218 222 230 237 243 251 263 278 289 295 298 304 313 319 321
305 302 298 294 290 288 285 283 281 278 275 274 273 272 270 269 269 271 272 272 273 272 267 261 258 257 258 258 256 250 243 236 229 222 220 220 217 213 214 215 213 212 213 213 213 214 214 215 217 219 220 222 224 225 222 216 211 209 207 203 201 200 200 200 200 201 204 207 210 213 216 221 227 235 244 257 273 286 290 294 302 310 318 324 325
308 305 303 301 298 293 288 283 280 278 277 274 272 269 268 267 268 270 271 270 269 269 269 266 259 255 254 252 251 251 245 236 228 221 218 219 219 215 213 214 213 212 214 215 215 215 215 215 218 220 221 223 225 224 219 213 209 206 202 200 200 200 199 199 199 200 203 205 207 210 213 219 225 233 246 265 282 288 289 296 307 315 320 325 327
310 307 306 304 300 294 286 281 279 279 278 275 273 271 270 269 268 268 267 268 267 268 269 269 266 261 256 253 251 250 245 237 229 222 219 222 223 220 215 214 213 214 215 216 216 215 215 216 218 221 223 224 224 220 214 209 205 201 198 198 198 198 198 198 199 200 201 203 205 209 212 217 224 233 250 270 281 287 293 301 311 317 321 327 330
312 308 305 303 299 293 287 282 279 275 270 267 268 269 272 274 276 275 272 270 269 268 268 269 269 266 260 255 251 246 242 237 230 223 221 223 225 222 217 215 215 216 218 218 218 217 216 216 218 221 223 223 219 214 208 203 199 197 196 197 196 196 197 198 198 198 199 201 204 208 212 217 226 238 255 271 280 288 297 303 311 320 326 329 330
315 310 307 304 301 296 292 289 286 280 272 267 265 265 267 269 271 275 278 278 276 272 268 267 267 262 256 252 249 244 238 234 229 225 222 222 223 221 218 216 217 219 220 220 220 219 218 217 218 219 220 219 215 209 204 199 196 194 194 194 194 195 197 198 198 197 198 200 203 207 213 221 231 245 260 274 283 289 296 305 314 324 330 330 328
319 314 311 307 304 300 295 291 287 283 280 277 273 268 265 263 262 264 270 275 277 274 269 265 264 260 256 255 252 244 235 231 228 225 222 220 220 220 218 217 218 219 219 219 219 218 217 217 216 215 214 211 206 201 198 195 193 192 192 191 192 194 196 197 198 197 198 201 204 209 216 226 238 250 264 278 287 292 301 312 321 327 330 327 325
324 320 317 313 308 304 300 295 290 287 285 283 280 277 273 267 261 260 263 268 276 277 271 264 261 258 256 258 257 246 232 227 226 223 220 218 218 218 218 218 219 220 220 218 216 214 213 212 210 209 205 200 194 190 189 188 187 187 188 190 192 194 196 195 196 198 199 203 208 214 222 232 243 257 270 284 294 300 307 318 325 327 326 324 324
332 330 328 323 317 312 308 302 298 295 291 288 286 286 286 282 272 264 262 267 276 280 273 266 263 259 256 257 255 243 229 224 223 221 217 216 217 217 217 218 219 220 220 217 213 209 207 205 206 206 200 192 187 184 183 183 182 182 184 186 189 192 194 194 196 199 202 207 214 222 230 239 252 266 280 292 300 305 313 321 325 325 323 321 324
343 343 342 340 336 331 325 318 311 306 303 299 295 292 290 289 285 278 272 274 281 283 275 267 263 258 252 248 243 233 224 222 221 218 216 215 216 217 218 219 218 217 215 210 205 203 201 199 200 199 193 187 183 181 179 178 178 180 182 185 187 190 192 193 196 201 206 213 222 231 240 252 263 275 288 297 301 307 316 322 322 321 319 319 324
355 353 353 356 356 351 343 336 330 323 317 313 309 304 299 294 289 285 283 284 287 284 275 264 257 251 243 237 232 226 222 220 218 216 215 216 217 217 217 216 214 210 204 195 191 190 189 187 187 186 183 181 178 177 176 176 176 178 181 183 185 188 192 195 200 207 212 221 232 242 252 264 275 284 291 298 304 312 319 320 318 317 315 317 325
6 4 2 3 4 2 356 350 344 340 335 330 326 323 319 310 297 289 287 286 284 277 266 256 248 242 235 231 226 222 219 217 215 212 211 213 213 212 209 205 198 193 187 181 177 177 176 174 174 174 174 173 172 172 173 174 175 177 180 182 184 188 194 200 207 215 221 230 242 253 263 272 280 286 294 303 312 317 318 317 314 313 313 318 328
14 15 14 13 12 10 7 3 359 354 346 338 330 322 313 304 295 288 284 280 272 261 250 243 238 233 228 225 221 218 215 212 210 207 207 207 205 199 192 184 178 176 174 172 170 169 168 167 167 167 168 168 168 169 170 171 173 176 179 181 184 190 197 204 212 221 230 238 248 259 266 273 280 290 301 310 313 313 314 313 311 310 313 321 329
21 21 22 23 23 22 20 18 16 12 4 355 346 334 321 311 304 296 287 275 260 244 234 229 226 224 221 219 216 214 211 207 204 200 197 194 188 180 175 171 169 168 167 166 164 162 162 162 162 163 164 164 165 165 166 169 172 174 178 182 186 191 197 205 215 224 233 241 251 260 266 275 287 298 306 310 309 310 311 310 307 309 317 325 329